FW1946 Weather Reports


Display with metric or nautical units.
time (UTC)temp
F
wind
direction
speed
MPH
gust
MPH
rain 1hr
in
rain 24hr
in
rain mn
in
humidity
%
barometer
mb
20260903174529 55 248 0.0 2.0 0.00 0.43 0.12 98 1012.2
20260903173036 52 202 0.0 0.0 0.00 0.43 0.12 98 1012.3
20260903170036 50 195 0.0 2.0 0.00 0.43 0.10 98 1012.4
20260903154536 50 180 0.0 1.0 0.01 0.41 0.09 98 1012.3
20260903153035 49 180 0.0 1.0 0.00 0.40 0.09 98 1012.4
20260903151530 48 180 0.0 0.0 0.00 0.40 0.09 98 1012.3
20260903144531 48 180 0.0 0.0 0.00 0.40 0.09 98 1012.2
20260903143032 47 157 0.0 1.0 0.00 0.40 0.09 98 1012.0
20260903140113 47 157 0.0 1.0 0.01 0.40 0.09 98 1011.9
20260903131535 47 157 0.0 1.0 0.01 0.40 0.08 98 1011.6
20260903130043 48 157 0.0 0.0 0.00 0.39 0.08 98 1011.6
20260903130035 48 157 0.0 1.0 0.00 0.39 0.08 98 1011.6
20260903114536 49 157 0.0 2.0 0.02 0.39 0.06 97 1011.5
20260903111536 49 186 0.0 2.0 0.01 0.37 0.06 97 1011.4
20260903110035 50 180 0.0 3.0 0.01 0.37 0.05 97 1011.2
20260903103034 51 180 0.0 1.0 0.00 0.36 0.05 97 1011.1
20260903100036 51 180 0.0 2.0 0.02 0.36 0.03 97 1011.0
20260903090036 51 198 0.0 2.0 0.00 0.34 0.02 97 1010.9
20260903074532 51 180 0.0 1.0 0.02 0.33 0.00 97 1010.4
20260903060031 53 202 0.0 0.0 0.02 0.30 0.28 96 1010.5
20260903051537 53 180 0.0 0.0 0.01 0.28 0.27 95 1010.2
20260903030033 56 225 0.0 3.0 0.02 0.24 0.22 94 1008.9
20260903023034 59 169 0.0 2.0 0.04 0.22 0.19 94 1008.4
20260903014530 59 175 0.0 0.0 0.01 0.19 0.18 94 1008.2
20260903013032 59 337 0.0 0.0 0.01 0.18 0.18 93 1008.2
20260903010034 59 337 0.0 1.0 0.03 0.18 0.18 93 1008.3
20260903004537 59 337 0.0 0.0 0.03 0.18 0.17 93 1008.4
20260903003035 59 337 0.0 0.0 0.03 0.17 0.17 92 1008.4
20260903001535 59 337 0.0 3.0 0.03 0.17 0.15 92 1008.3
20260903000036 59 17 0.0 2.0 0.01 0.15 0.14 90 1008.2
20260902233034 60 337 2.0 4.0 0.02 0.14 0.14 90 1008.4
20260902231531 60 337 1.0 3.0 0.03 0.14 0.14 90 1008.6
20260902224533 59 337 2.0 5.0 0.03 0.12 0.11 92 1008.5
20260902221536 60 358 1.0 4.0 0.05 0.11 0.09 91 1008.2
20260902213034 60 334 2.0 5.0 0.04 0.07 0.06 90 1008.1
20260902211535 60 353 1.0 4.0 0.05 0.06 0.06 89 1008.2
20260902204534 61 22 0.0 2.0 0.03 0.04 0.03 86 1008.3
20260902201610 61 337 0.0 2.0 0.01 0.01 0.01 81 1008.4
20260902194534 63 270 0.0 0.0 0.01 0.01 0.00 76 1008.3
20260902193031 64 270 0.0 2.0 0.00 0.00 0.00 72 1008.2
20260902183037 66 337 1.0 6.0 0.00 0.00 0.00 62 1007.8
20260902181536 65 346 2.0 5.0 0.00 0.00 0.00 62 1007.8
20260902180035 67 347 2.0 5.0 0.00 0.00 0.00 61 1007.9